• MPC Preparation (Info)

  • MPEC 2023-F133 : 2023 FU3

    The following Minor Planet Electronic Circular may be linked-to from your own Web pages, but must not otherwise be redistributed electronically.

    A form allowing access to any MPEC is at the bottom of this page.


    Read MPEC 2023-F132 Read MPEC 2023-F134


    M.P.E.C. 2023-F133                               Issued 2023 March 25, 00:12 UT
    
         The Minor Planet Electronic Circulars contain information on unusual
             minor planets, routine data on comets and natural satellites,
             and occasional editorial announcements.  They are published
        on behalf of Division F of the International Astronomical Union by the
              Minor Planet Center, Smithsonian Astrophysical Observatory,
                              Cambridge, MA 02138, U.S.A.
    			  
                 Prepared using the Tamkin Foundation Computer Network
    
                                  MPC@CFA.HARVARD.EDU
                URL https://www.minorplanetcenter.net/    ISSN 1523-6714
    
                                    2023 FU3                                 
    
    
    Observations:
         K23F03U  C2023 03 18.36907309 54 56.559-04 30 41.93         21.04GVEF133F52
         K23F03U*KC2023 03 23.89855 11 15 38.314-04 13 30.61         19.4 GXEF133L87
         K23F03U KC2023 03 23.90010 11 15 40.142-04 13 29.89         20.0 GXEF133L87
         K23F03U KC2023 03 23.90471 11 15 45.730-04 13 28.06         19.6 GXEF133L87
         K23F03U KC2023 03 23.90933 11 15 51.084-04 13 25.28         19.6 GXEF133L87
         K23F03U KC2023 03 23.91087 11 15 52.932-04 13 24.06         19.5 GXEF133L87
         K23F03U KC2023 03 23.95995 11 16 51.262-04 12 55.91         19.2 GXEF133L87
         K23F03U KC2023 03 23.96925 11 17 02.388-04 12 51.16         19.9 GXEF133L87
         K23F03U KC2023 03 23.96964 11 17 02.844-04 12 51.19         19.6 GXEF133L87
         K23F03U KC2023 03 23.97484 11 17 09.060-04 12 48.31         20.0 GXEF133L87
         K23F03U KC2023 03 23.97836 11 17 13.308-04 12 45.94         19.5 GXEF133L87
         K23F03U KC2023 03 24.04929 11 18 39.665-04 12 02.74         19.6 GXEF133L87
         K23F03U KC2023 03 24.06157 11 18 54.826-04 11 55.18         19.5 GXEF133L87
         K23F03U KC2023 03 24.07385 11 19 10.102-04 11 46.82         19.4 GXEF133L87
         K23F03U KC2023 03 24.15797011 21 19.88 -04 14 46.0          19.8 GXEF133858
         K23F03U KC2023 03 24.16655911 21 30.64 -04 14 41.2          19.4 GXEF133858
         K23F03U KC2023 03 24.17331111 21 39.12 -04 14 38.1          20.2 GXEF133858
         K23F03U KC2023 03 24.81873 11 36 30.679-04 03 44.03         19.8 GXEF133L87
         K23F03U KC2023 03 24.82043 11 36 32.981-04 03 43.06         19.3 GXEF133L87
         K23F03U KC2023 03 24.82208 11 36 35.263-04 03 41.72         18.7 GXEF133L87
         K23F03U KC2023 03 24.82809 11 36 43.466-04 03 37.94         19.7 GXEF133L87
         K23F03U KC2023 03 24.83676 11 36 55.274-04 03 32.08         19.9 GXEF133L87
         K23F03U KC2023 03 24.87061 11 37 42.02 -04 07 28.6          19.7 VZEF133C95
         K23F03U KC2023 03 24.87104111 37 43.51 -04 07 28.9          20.2 GXEF133I93
         K23F03U KC2023 03 24.87842 11 37 52.82 -04 07 23.4          21.1 VZEF133C95
         K23F03U KC2023 03 24.88578411 38 04.02 -04 07 19.7          20.4 GXEF133I93
         K23F03U KC2023 03 24.88601 11 38 03.28 -04 07 17.5          19.8 VZEF133C95
         K23F03U 1C2023 03 24.92925 11 39 01.64 -04 07 05.7          20.8 VXEF133033
         K23F03U 1C2023 03 24.92953 11 39 02.04 -04 07 05.8          20.7 VXEF133033
         K23F03U 1C2023 03 24.92982 11 39 02.46 -04 07 05.1          20.4 VXEF133033
         K23F03U 1C2023 03 24.93115 11 39 04.28 -04 07 05.3          20.8 VXEF133033
         K23F03U KC2023 03 24.94377311 39 34.659-04 02 16.90         19.5 GXEF133Y00
         K23F03U KC2023 03 24.94806311 39 40.674-04 02 13.00         19.6 GXEF133Y00
         K23F03U KC2023 03 24.95235311 39 46.711-04 02 09.97         20.3 GXEF133Y00
    
    Observer details:
    033 Karl Schwarzschild Observatory, Tautenburg.  Observers S. Melnikov, C.
        Hoegner, F. Ludwig, B. Stecklum.  Measurer B. Stecklum.  1.34-m f/3
        Schmidt + CCD.
    858 Tebbutt Observatory, Edgewood.  Observer F. B. Zoltowski.  0.51-m f/8.1
        Schmidt-Cassegrain + CCD.
    C95 SATINO Remote Observatory, Haute Provence.  Observer D. Husar.  0.30-m
        f/5.8 reflector + CCD.
    F52 Pan-STARRS 2, Haleakala.  Observers J. Bulger, K. Chambers, T. Dukes, T.
        Lowe, A. Schultz, I. Smith.  Measurers S. Chastel, J. Fairlamb, M. Huber,
        Y. Ramanjooloo, R. Wainscoat, R. Weryk.  1.8-m Ritchey-Chretien + CCD.
    I93 St Pardon de Conques.  Observer F. Losse.  0.40-m f/3.7 reflector + CCD.
    L87 Moonbase South Observatory, Hakos.  Observer G. Duszanowicz.  Measurer J.
        Camarasa.  0.28-m f/1.9 reflector + CCD, 0.36-m f/7.7 reflector + CCD.
    Y00 SONEAR Observatory, Oliveira.  Observer C. Jacques.  0.45-m f/2.9
        reflector + CCD.
    
    Orbital elements:
    2023 FU3                                                 Earth MOID = 0.0285 AU
    Epoch 2023 Feb. 25.0 TT = JDT 2460000.5                 Veres                   
    M 349.04996              (2000.0)            P               Q                  
    n   0.29426738     Peri.    8.58393     -0.96893702     +0.24715241             
    a   2.2385904      Node   185.74758     -0.23177742     -0.91987563             
    e   0.5417451      Incl.    5.01839     -0.08625708     -0.30453983             
    P   3.35           H   26.48          G   0.15           U   8                  
    Residuals in seconds of arc
    230318 F52(15.4+  0.1+)   230324 L87  0.5-  0.2+    230324 C95  0.4+  0.1-
    230323 L87  0.7+  0.8-    230324 L87  0.8-  0.7+    230324 I93  1.0+  0.5-
    230323 L87  0.6+  0.9-    230324 858  0.1-  0.0     230324 C95  0.1-  0.5+
    230323 L87  2.5+  1.5-    230324 858  0.3-  0.3+    230324 033  0.4-  0.1+
    230323 L87  0.7+  1.1-    230324 858  0.0   0.1-    230324 033  0.2-  0.2-
    230323 L87  1.1+  0.7-    230324 L87  0.2-  0.5+    230324 033  0.0   0.3+
    230323 L87  0.2-  0.8+    230324 L87  0.5-  0.3+    230324 033  0.4-  0.9-
    230323 L87  0.2-  0.3+    230324 L87  0.1-  0.5+    230324 Y00  0.1-  0.8-
    230323 L87  0.4-  0.0     230324 L87  0.0   0.2+    230324 Y00  0.3-  0.2+
    230323 L87  0.7-  0.1-    230324 L87  0.1-  0.2+    230324 Y00  0.3-  0.3+
    230323 L87  0.4-  0.2+    230324 C95  0.4+  0.2+
    230324 L87  0.1+  0.4+    230324 I93  0.3+  0.6+
    
    Ephemeris:
    2023 FU3                 a,e,i = 2.24, 0.54, 5                   q = 1.0258
    Date    TT    R. A. (2000) Decl.     Delta      r    Elong.  Phase     V
    2023 02 23    08 45 08.9 -03 17 04   0.1602  1.1335   152.3    24.0    23.9
    ...
    2023 03 10    09 06 56.5 -04 11 55   0.09046 1.0690   145.9    31.4    22.7
    ...
    2023 03 18    09 51 30.5 -04 29 16   0.05768 1.0455   150.3    28.2    21.6
    ...
    2023 03 24    11 17 45.1 -04 13 50   0.03797 1.0337   166.5    13.0    20.2
    2023 03 25    11 40 42.6 -04 02 51   0.03561 1.0322   171.4     8.4    19.9
    2023 03 26    12 06 38.0 -03 47 27   0.03368 1.0309   176.7     3.2    19.5
    ...
    2023 04 01    15 07 55.4 -00 53 52   0.03387 1.0261   142.7    36.1    20.7
    ...
    2023 04 09    17 19 49.0 +01 37 02   0.05719 1.0282   116.7    60.5    22.5
    ...
    2023 04 24    18 22 00.7 +02 29 30   0.1143  1.0576   114.2    60.1    24.0
    
    M. P. C. Staff               (C) Copyright 2023 MPC           M.P.E.C. 2023-F133
    


    Read MPEC 2023-F132 Read MPEC 2023-F134


    MPEC number:

    Enter an MPEC number in one of the following forms:

    • 1997-B01 (the full form)
    • J97B01 (the packed version of the full form)
    • B01 (the abbreviated form)